TimeEST,TemperatureF,Dew PointF,Humidity,Sea Level PressureIn,VisibilityMPH,Wind Direction,Wind SpeedMPH,Gust SpeedMPH,PrecipitationIn,Events,Conditions,WindDirDegrees,DateUTC
12:15 AM,32.0,30.2,93,30.35,10.0,Calm,Calm,-,N/A,,Clear,0,2013-11-09 05:15:00
12:35 AM,32.0,30.2,93,30.36,10.0,Calm,Calm,-,N/A,,Clear,0,2013-11-09 05:35:00
12:55 AM,32.0,30.2,93,30.36,10.0,Calm,Calm,-,N/A,,Clear,0,2013-11-09 05:55:00
1:15 AM,32.0,30.2,93,30.36,10.0,Calm,Calm,-,N/A,,Clear,0,2013-11-09 06:15:00
1:35 AM,30.2,28.4,93,30.36,10.0,North,3.5,-,N/A,,Clear,10,2013-11-09 06:35:00
1:55 AM,30.2,28.4,93,30.36,10.0,Calm,Calm,-,N/A,,Clear,0,2013-11-09 06:55:00
2:15 AM,32.0,30.2,93,30.36,10.0,Calm,Calm,-,N/A,,Clear,0,2013-11-09 07:15:00
2:35 AM,30.2,28.4,93,30.36,10.0,Calm,Calm,-,N/A,,Clear,0,2013-11-09 07:35:00
2:55 AM,30.2,28.4,93,30.36,10.0,Calm,Calm,-,N/A,,Clear,0,2013-11-09 07:55:00
3:15 AM,30.2,28.4,93,30.36,10.0,Calm,Calm,-,N/A,,Clear,0,2013-11-09 08:15:00
3:35 AM,30.2,28.4,93,30.36,10.0,Calm,Calm,-,N/A,,Clear,0,2013-11-09 08:35:00
3:55 AM,30.2,28.4,93,30.36,10.0,Calm,Calm,-,N/A,,Clear,0,2013-11-09 08:55:00
4:15 AM,30.2,28.4,93,30.37,10.0,Calm,Calm,-,N/A,,Clear,0,2013-11-09 09:15:00
4:35 AM,30.2,28.4,93,30.37,10.0,Calm,Calm,-,N/A,,Clear,0,2013-11-09 09:35:00
4:55 AM,30.2,28.4,93,30.37,10.0,Calm,Calm,-,N/A,,Clear,0,2013-11-09 09:55:00
5:15 AM,30.2,28.4,93,30.38,10.0,Calm,Calm,-,N/A,,Clear,0,2013-11-09 10:15:00
5:35 AM,28.4,28.4,100,30.39,10.0,Calm,Calm,-,N/A,,Clear,0,2013-11-09 10:35:00
5:55 AM,28.4,26.6,93,30.39,10.0,Calm,Calm,-,N/A,,Clear,0,2013-11-09 10:55:00
6:15 AM,28.4,26.6,93,30.39,10.0,Calm,Calm,-,N/A,,Clear,0,2013-11-09 11:15:00
6:35 AM,28.4,28.4,100,30.39,10.0,Calm,Calm,-,N/A,,Clear,0,2013-11-09 11:35:00
6:51 AM,28.4,26.6,93,30.39,10.0,Calm,Calm,-,N/A,,Clear,0,2013-11-09 11:51:00
7:55 AM,32.0,30.2,93,30.40,10.0,Calm,Calm,-,N/A,,Clear,0,2013-11-09 12:55:00
8:52 AM,42.8,33.8,70,30.42,10.0,Calm,Calm,-,N/A,,Clear,0,2013-11-09 13:52:00
9:51 AM,46.4,26.6,46,30.41,10.0,Calm,Calm,-,N/A,,Clear,0,2013-11-09 14:51:00
10:53 AM,53.6,26.6,35,30.39,10.0,Calm,Calm,-,N/A,,Clear,0,2013-11-09 15:53:00
11:59 AM,-9999,-9999,N/A,30.36,10.0,WSW,8.1,-,N/A,,Clear,250,2013-11-09 16:59:00
12:54 PM,57.2,23.0,27,30.34,10.0,SW,5.8,-,N/A,,Clear,230,2013-11-09 17:54:00
1:53 PM,60.8,24.8,25,30.31,10.0,SW,9.2,-,N/A,,Clear,230,2013-11-09 18:53:00
2:52 PM,59.0,24.8,27,30.29,10.0,WSW,5.8,-,N/A,,Clear,240,2013-11-09 19:52:00
3:55 PM,57.2,24.8,29,30.30,10.0,WSW,5.8,-,N/A,,Clear,250,2013-11-09 20:55:00
4:55 PM,57.2,26.6,31,30.30,10.0,Calm,Calm,-,N/A,,Clear,0,2013-11-09 21:55:00
5:51 PM,55.4,28.4,36,30.29,10.0,Calm,Calm,-,N/A,,Clear,0,2013-11-09 22:51:00
6:51 PM,51.8,32.0,47,30.27,10.0,Calm,Calm,-,N/A,,Clear,0,2013-11-09 23:51:00
7:55 PM,53.6,32.0,44,30.26,10.0,Calm,Calm,-,N/A,,Clear,0,2013-11-10 00:55:00
8:15 PM,51.8,32.0,47,30.26,10.0,Calm,Calm,-,N/A,,Clear,0,2013-11-10 01:15:00
8:35 PM,51.8,32.0,47,30.26,10.0,SW,3.5,-,N/A,,Clear,230,2013-11-10 01:35:00
8:55 PM,53.6,32.0,44,30.26,10.0,Calm,Calm,-,N/A,,Clear,0,2013-11-10 01:55:00
9:35 PM,50.0,32.0,50,30.25,10.0,Calm,Calm,-,N/A,,Clear,0,2013-11-10 02:35:00
9:55 PM,50.0,32.0,50,30.24,10.0,Calm,Calm,-,N/A,,Clear,0,2013-11-10 02:55:00
10:15 PM,50.0,32.0,50,30.24,10.0,SW,3.5,-,N/A,,Clear,230,2013-11-10 03:15:00
10:35 PM,50.0,32.0,50,30.24,10.0,SW,3.5,-,N/A,,Clear,230,2013-11-10 03:35:00
10:55 PM,50.0,32.0,50,30.25,10.0,SW,4.6,-,N/A,,Clear,220,2013-11-10 03:55:00
11:15 PM,46.4,32.0,57,30.25,10.0,SSW,4.6,-,N/A,,Clear,210,2013-11-10 04:15:00
11:35 PM,48.2,32.0,54,30.25,10.0,SW,4.6,-,N/A,,Clear,220,2013-11-10 04:35:00
11:55 PM,48.2,32.0,54,30.24,10.0,SW,3.5,-,N/A,,Clear,220,2013-11-10 04:55:00